CW9454 Weather Reports


time (UTC)temp
F
wind
direction
speed
knots
gust
knots
rain 1hr
in
rain 24hr
in
rain mn
in
humidity
%
barometer
mb
20260504050024 47 238 0.0 0.0 0.00 0.00 0.00 68 1015.6
20260504045035 47 238 0.0 0.0 0.00 0.00 0.00 67 1015.7
20260504044028 47 238 0.0 0.0 0.00 0.00 0.00 67 1015.9
20260504043022 47 238 0.0 0.0 0.00 0.00 0.00 68 1015.8
20260504042034 47 238 0.0 0.0 0.00 0.00 0.00 68 1015.8
20260504041019 47 238 0.0 0.0 0.00 0.00 0.00 68 1015.8
20260504040036 47 238 0.0 0.0 0.00 0.00 0.00 68 1015.7
20260504035029 47 238 0.0 0.0 0.00 0.00 0.00 67 1015.7
20260504034013 47 240 0.0 0.0 0.00 0.00 0.00 66 1015.6
20260504033028 47 240 0.0 0.0 0.00 0.00 0.00 65 1015.3
20260504032022 48 240 0.0 0.0 0.00 0.00 0.00 64 1015.3
20260504031013 48 240 0.0 0.0 0.00 0.00 0.00 64 1015.1
20260504030050 48 240 0.0 0.0 0.00 0.00 0.00 64 1015.3
20260504025013 48 240 0.0 0.0 0.00 0.00 0.00 63 1015.2
20260504024056 49 240 0.0 0.0 0.00 0.00 0.00 63 1015.1
20260504023049 49 240 0.0 0.0 0.00 0.00 0.00 63 1015.1
20260504022024 50 240 0.0 0.0 0.00 0.00 0.00 61 1015.1
20260504021037 50 240 0.0 0.0 0.00 0.00 0.00 61 1015.0
20260504020024 50 240 0.0 0.0 0.00 0.00 0.00 61 1015.0
20260504015037 51 240 0.0 0.0 0.00 0.00 0.00 59 1014.8
20260504014022 51 240 0.0 0.0 0.00 0.00 0.00 58 1014.9
20260504013101 52 240 0.0 0.0 0.00 0.00 0.00 57 1014.9
20260504012026 53 240 0.0 0.0 0.00 0.00 0.00 56 1014.8
20260504011020 53 240 0.0 0.0 0.00 0.00 0.00 55 1014.7
20260504010056 54 240 0.0 0.0 0.00 0.00 0.00 53 1014.7
20260504005020 55 240 0.0 0.0 0.00 0.00 0.00 52 1014.6
20260504004014 56 240 0.0 0.0 0.00 0.00 0.00 51 1014.4
20260504003028 57 240 0.0 0.0 0.00 0.00 0.00 50 1014.4
20260504002024 57 240 0.0 0.0 0.00 0.00 0.00 47 1014.3
20260504001018 58 240 0.0 0.0 0.00 0.00 0.00 46 1014.3
20260504000027 59 240 0.0 0.0 0.00 0.00 0.00 43 1014.2
20260503235021 61 240 0.0 3.5 0.00 0.00 0.00 39 1014.1
20260503234035 61 97 0.0 2.6 0.00 0.00 0.00 35 1014.0
20260503233020 62 278 0.9 4.3 0.00 0.00 0.00 34 1013.8
20260503232013 62 267 0.0 4.3 0.00 0.00 0.00 33 1013.9
20260503231028 63 270 1.7 7.0 0.00 0.00 0.00 33 1014.0
20260503230013 63 257 1.7 6.1 0.00 0.00 0.00 33 1013.8
20260503225027 63 267 2.6 7.0 0.00 0.00 0.00 33 1013.9
20260503224021 63 264 1.7 8.7 0.00 0.00 0.00 33 1013.9
20260503223015 63 344 0.9 7.0 0.00 0.00 0.00 32 1013.9
20260503222030 64 230 2.6 13.0 0.00 0.00 0.00 31 1013.9
20260503221015 64 228 1.7 7.8 0.00 0.00 0.00 32 1014.0
20260503220033 64 236 3.5 7.8 0.00 0.00 0.00 31 1014.0
20260503215018 64 262 1.7 9.6 0.00 0.00 0.00 33 1014.0
20260503214031 64 241 3.5 9.6 0.00 0.00 0.00 31 1013.9
20260503213055 65 345 0.9 7.8 0.00 0.00 0.00 34 1013.9
20260503212019 64 333 4.3 11.3 0.00 0.00 0.00 33 1014.0
20260503211028 64 289 0.9 11.3 0.00 0.00 0.00 34 1014.0
20260503210045 64 256 2.6 7.0 0.00 0.00 0.00 34 1014.1
20260503205037 63 225 0.9 7.8 0.00 0.00 0.00 36 1014.0
20260503204029 63 264 1.7 8.7 0.00 0.00 0.00 35 1014.1
20260503203014 63 262 2.6 9.6 0.00 0.00 0.00 35 1014.2
20260503202037 63 272 2.6 12.2 0.00 0.00 0.00 35 1014.3
20260503201021 62 261 1.7 7.8 0.00 0.00 0.00 36 1014.3
20260503200038 63 291 0.0 7.8 0.00 0.00 0.00 37 1014.4
20260503195022 63 267 4.3 9.6 0.00 0.00 0.00 36 1014.7
20260503194036 62 277 2.6 10.4 0.00 0.00 0.00 38 1014.5
20260503193058 62 313 0.9 5.2 0.00 0.00 0.00 36 1014.8
20260503192020 61 254 3.5 15.6 0.00 0.00 0.00 37 1014.9
20260503191014 62 271 0.9 9.6 0.00 0.00 0.00 36 1015.1
20260503190053 63 215 3.5 9.6 0.00 0.00 0.00 38 1015.0
20260503185023 62 279 1.7 11.3 0.00 0.00 0.00 39 1015.1
20260503184016 61 252 2.6 14.8 0.00 0.00 0.00 37 1015.3
20260503183030 61 351 2.6 10.4 0.00 0.00 0.00 37 1015.6
20260503182015 60 248 0.0 12.2 0.00 0.00 0.00 36 1015.5
20260503181055 61 308 2.6 8.7 0.00 0.00 0.00 39 1015.8
20260503180022 60 300 4.3 10.4 0.00 0.00 0.00 38 1015.6
20260503175031 60 267 2.6 12.2 0.00 0.00 0.00 39 1015.8
20260503174017 60 344 1.7 10.4 0.00 0.00 0.00 38 1016.2
20260503173040 60 311 1.7 7.8 0.00 0.00 0.00 35 1016.1
20260503172025 60 236 0.0 10.4 0.00 0.00 0.00 40 1016.0
20260503171021 59 330 2.6 9.6 0.00 0.00 0.00 41 1016.0
20260503131027 47 286 1.7 7.0 0.00 0.00 0.00 57 1016.9
20260503081015 44 262 3.5 7.8 0.00 0.00 0.00 71 1013.9
20260503072040 45 235 2.6 7.8 0.00 0.00 0.00 69 1013.6
20260503071025 45 246 2.6 6.1 0.00 0.00 0.00 69 1013.5